COSMOS 2251 DEB, 40810

Orbit data source: Space-Track

COSMOS 2251 DEB, 40810 is space debris in LEO originally from a launch on Wed, 16 Jun 1993 UTC launched from the Plesetsk Missile And Space Complex (PKMTR). The debris from Iridium 33, an American commercial communications satellite, has been tracked extensively since its accidental collision with the defunct Russian satellite Cosmos 2251 in 2009. This event, occurring at high speed in low Earth orbit (LEO), generated thousands of pieces of space debris, significantly increasing the risk of further collisions. The Iridium 33 debris cloud has impacted space traffic management and orbital debris mitigation strategies, making it a subject of ongoing study in space situational awareness.

Loading next visibility...
Identifier
40810, 1993-036BWP
Orbit
LEO
Country
Flag of CISCIS
Related business
Manufacturer
Unknown
Mission
Spacecraft
Bus & Motor
Unknown
Mass
Unknown
Launch date (UTC)
1993-06-16 (32 years ago)
Launch vehicle
Unknown
Launch site
Plesetsk Missile And Space Complex (PKMTR)
Object type
Payload
Rocket body
Debris
Shape & HBR
Unknown shape, 0.1 m
Radar Cross Section
Small (<0.1 m²)

Expand to show TLE details & history
Last TLE update: 2 days ago

TLE from 2 days ago
0 COSMOS 2251 DEB
1 40810U 93036BWP 25299.61658033  .00003349  00000-0  72967-3 0  9996
2 40810  74.0350 164.4375 0018350 318.8322  41.1458 14.58235267609964
Epoch: 2025-10-26T14:47Z
TLE epoch observation values (Epoch: 2025-10-26T14:47:52.540Z)
Latitude
0.00004°
Longitude
-92.76162°
Altitude
691.745 km
Speed
7.516 km/s
True Right ascension
10h 57m 45s
True Declination
0° 00' 00"
Sunlit
Object was in daylight at epoch
Visualization orbit readout
Latitude
Unknown
Longitude
Unknown
Altitude
Unknown
Speed
Unknown
Apparent Right ascension
Unknown
Apparent Declination
Unknown
Sunlit
N/A
Visualization observer readout
Local Sidereal Time
16:36:45
Azimuth
Unknown
Elevation
Unknown
Doppler factor
Unknown
Orbital elements
Apogee altitude
709.459 km
Perigee altitude
683.496 km
Semi-major axis
7,074.614 km
Eccentricity
0.00184
Inclination
74.035°
RAAN
164.4375°
Arg. of periapsis
318.8322°
True anomaly
41.2844°
Mean anomaly
41.1458°
Eccentric anomaly
41.21507°
Mean motion
3.64745 °/min
Orbital period
98.7 mins
BSTAR
0.00072967

Documentation

Showing up to 5 results
|